Regional Weather Roundup
Issued by NWS

Home | Current Version | Previous Version | Graphics & Text | Print | Product List | Glossary Off
Versions: 1 2 3 4 5 6 7 8 9 10 11 12 13 14 15 16 17 18 19 20 21 22 23 24 25 26 27 28 29 30 31 32 33 34 35 36 37 38 39 40 41 42 43 44 45 46 47 48 49 50

000
ASUS43 KMKX 041800
RWRWI

WISCONSIN REGIONAL WEATHER ROUNDUP
NATIONAL WEATHER SERVICE MILWAUKEE/SULLIVAN WI
100 PM CDT TUE AUG 04 2015

NOTE: "FAIR" INDICATES FEW OR NO CLOUDS BELOW 12,000 FEET WITH NO
SIGNIFICANT WEATHER AND/OR OBSTRUCTIONS TO VISIBILITY.

WIZ001-002-006>008-014>016-023>028-041900-
NORTHWEST WISCONSIN

CITY           SKY/WX    TMP DP  RH WIND       PRES   REMARKS
SUPERIOR ARPT  CLOUDY    69  55  60 NW10      29.97F
ASHLAND        CLOUDY    71  55  56 N8        29.98S
6HR MIN TEMP:  55; 6HR MAX TEMP:  72;

HAYWARD        MOSUNNY   73  50  44 VRB5      29.98F
6HR MIN TEMP:  50; 6HR MAX TEMP:  73;

SIREN          SUNNY     74  51  44 NW9       29.99S
CUMBERLAND     MOSUNNY   72  50  46 NW8       29.99F
RICE LAKE      SUNNY     73  50  43 W8        30.00F
CHETEK         MOSUNNY   74  53  48 NW8G16    29.99F
LADYSMITH      PTSUNNY   72  51  47 NW9       30.00S
EAU CLAIRE     NOT AVBL
MENOMONIE      MOSUNNY   76  49  37 W10G18    30.00S
NEW RICHMOND   SUNNY     75  49  40 W8        30.00S
OSCEOLA        SUNNY     76  53  45 W10G17    30.01F
$$

WIZ003>005-009-010-017-018-041900-
NORTH CENTRAL WISCONSIN

CITY           SKY/WX    TMP DP  RH WIND       PRES   REMARKS
MANITOWISH WTR CLOUDY    64  52  64 NW7       29.99S
ARBOR VITAE    PTSUNNY   69  55  59 N13       29.98S
WOODRUFF       PTSUNNY   69  55  59 N13       29.98S
RHINELANDER    PTSUNNY   72  50  45 NW9G17    29.97F
6HR MIN TEMP:  56; 6HR MAX TEMP:  72;

EAGLE RIVER    PTSUNNY   66  49  55 NW12G20   29.98S
LAND O LAKES   CLOUDY    64  51  64 NW7       30.00R
PHILLIPS       MOSUNNY   69  53  57 NW7       29.97F
TOMAHAWK       PTSUNNY   70  51  51 NW10G16   29.97F
MEDFORD        CLOUDY    70  52  52 W9G17     29.99S
MERRILL        NOT AVBL
$$

WIZ029-030-035-036-043>047-041900-
CENTRAL WISCONSIN

CITY           SKY/WX    TMP DP  RH WIND       PRES   REMARKS
WAUSAU         PTSUNNY   73  49  42 NW12G24   29.96R
6HR MIN TEMP:  58; 6HR MAX TEMP:  75;

MOSINEE        NOT AVBL
MARSHFIELD     CLOUDY    72  49  44 NW10      29.99S
6HR MIN TEMP:  58; 6HR MAX TEMP:  74;

STEVENS POINT  PTSUNNY   73  50  44 W12G17    29.98S
WAUPACA        PTSUNNY   77  50  38 W10G17    29.96F
WAUTOMA        NOT AVBL
WISC RAPIDS    PTSUNNY   75  48  38 NW12      29.99F
6HR MIN TEMP:  60; 6HR MAX TEMP:  78;

CAMP DOUGLAS   NOT AVBL
$$

WIZ011>013-019>022-031-037>040-048>050-041900-
NORTHEAST WISCONSIN

CITY           SKY/WX    TMP DP  RH WIND       PRES   REMARKS
ANTIGO         PTSUNNY   70  52  53 NW16      29.96F
SHAWANO        MOSUNNY   76  51  41 NW10G16   29.94S
OCONTO         PTSUNNY   73  54  51 NW12G17   29.92S
STURGEON BAY   SUNNY     70  54  56 NW9       29.95S
6HR MIN TEMP:  61; 6HR MAX TEMP:  70;

GREEN BAY      PTSUNNY   75  56  51 NW10      29.94S
6HR MIN TEMP:  57; 6HR MAX TEMP:  75;

MANITOWOC      NOT AVBL
APPLETON       NOT AVBL
CLINTONVILLE   MOSUNNY   73  46  38 NW16G23   29.95R
OSHKOSH        MOSUNNY   74  51  44 NW9G18    29.96S
6HR MIN TEMP:  59; 6HR MAX TEMP:  76;

$$

WIZ032>034-041-042-053>061-041900-
SOUTHWEST WISCONSIN

CITY           SKY/WX    TMP DP  RH WIND       PRES   REMARKS
LA CROSSE      MOSUNNY   79  51  37 NW8       30.00S
6HR MIN TEMP:  60; 6HR MAX TEMP:  79;

SPARTA         MOSUNNY   76  47  35 NW9G17    30.01S
VIROQUA        MOSUNNY   73  51  45 W9        30.04R
BOSCOBEL       PTSUNNY   82  52  35 NW9       30.01S HX  81
6HR MIN TEMP:  56; 6HR MAX TEMP:  82;

PRAIRIE DU CHI CLOUDY    75  51  43 SW7       30.01F
PLATTEVILLE    PTSUNNY   74  55  50 NW10      30.02S
$$

WIZ056-057-062-063-064-067-068-041900-
SOUTH CENTRAL WISCONSIN

CITY           SKY/WX    TMP DP  RH WIND       PRES   REMARKS
REEDSBURG      MOSUNNY   76  51  41 NW14      29.99S
BARABOO/DELLS  PTSUNNY   76  46  34 W14G23    30.00S
LONE ROCK      NOT AVBL
MINERAL POINT  PTSUNNY   75  50  41 W7        30.03R
MADISON        PTSUNNY   76  51  41 NW14      29.99S
6HR MIN TEMP:  62; 6HR MAX TEMP:  77;

MIDDLETON      MOSUNNY   78  45  31 NW12      30.00S
WATERTOWN      MOSUNNY   76  53  44 NW10      29.97F
MONROE         PTSUNNY   75  54  46 NW9       30.00S
JANESVILLE     PTSUNNY   79  52  38 W14       29.98S
$$

WIZ051-052-058>065-066-070>072-041900-
SOUTHEAST WISCONSIN

CITY           SKY/WX    TMP DP  RH WIND       PRES   REMARKS
MILWAUKEE      PTSUNNY   78  52  40 NW16G24   29.96S
6HR MIN TEMP:  65; 6HR MAX TEMP:  79;

WAUKESHA       MOSUNNY   75  48  38 W12G23    29.98F
MILWAUKEE/TIMM MOSUNNY   77  45  31 NW15G26   29.96F
RACINE         MOSUNNY   78  52  40 W13G21    29.97S
6HR MIN TEMP:  63; 6HR MAX TEMP:  78;

BURLINGTON     MOSUNNY   76  51  41 NW13      29.97S
KENOSHA        MOSUNNY   77  57  50 NW14      29.97R
6HR MIN TEMP:  60; 6HR MAX TEMP:  78;

FOND DU LAC    PTSUNNY   77  53  43 N14G20    29.97S
6HR MIN TEMP:  59; 6HR MAX TEMP:  77;

SHEBOYGAN      MOSUNNY   75  54  47 W14       29.95S
6HR MIN TEMP:  61; 6HR MAX TEMP:  75;

WEST BEND      MOSUNNY   73  50  43 NW14G20   29.97S
JUNEAU         MOSUNNY   73  52  48 NW8G16    29.99R
$$

LSZ147-162-041900-
LAKE SUPERIOR

STATION/POSITION TIME  TEMP    WIND        PRES    WAVE
                       AIR SEA DIR/SP/G            HT/PER
                 (UTC) (F)     (DEG/KT/KT) (MB)    (FT/S)
W MID LAKE BUOY  1650   58 57  230/  2/  2 1015.0R   1
DEVILS ISLAND    1700   59     270/  2/  6 1015.7R
PORT WING        1740   67     290/  5/  8 1015.2F
SAXON HARBOR     1700   65      30/  4     1015.2
$$

LMZ867-665-643>646-041900-
LAKE MICHIGAN

STATION/POSITION TIME  TEMP    WIND        PRES    WAVE
                       AIR SEA DIR/SP/G            HT/PER
                 (UTC) (F)     (DEG/KT/KT) (MB)    (FT/S)
CHAMBERS ISLAND  1700   67     190/  3/  7 1013.2F
N MID LAKE BUOY  1650   63 69   CALM  /  2 1013.2R   1/ 3
NORTHPORT PIER   1700   65     320/  7/ 10 1013.5R
SISTER BAY       1703   71     280/  5/  6   N/A
ALGOMA LAKESHORE 1742          310/  7/ 10   N/A
KEWAUNEE LAKESHO 1700   71     320/  8/ 11 1013.1F
SHEBOYGAN LAKESH 1700   65        CALM     1014.3S
PORT WASHINGTON  1700   76     300/  6/ 15 1014.6F
ATWATER BUOY     1700   66 52  290/ 10/ 12 1015.5F
MILWAUKEE LAKESH 1700   74     280/ 14/ 17   N/A
KENOSHA   LAKESH 1700   77     290/ 12/ 19 1013.9F
$$

TC  - TEMPERATURE IN CELSIUS
VSB - VISIBILITY IN STATUTE MILES
WCI - WIND CHILL INDEX
HX  - HEAT INDEX




USA.gov is the U.S. government's official web portal to all federal, state and local government web resources and services.